Orange, MA

9:22 AM EDT on June 29, 2017 (GMT -0400)
Orange Municipal

Weather History for KORE - April, 2014

Change the Weather History Date:

Thursday, April 17, 2014

  Actual Average Record
Temperature  
Mean Temperature 34 °F -  
Max Temperature 46 °F 57 °F 91 °F (2002)
Min Temperature 21 °F 31 °F 21 °F (2014)
Degree Days  
Heating Degree Days 32    
Moisture  
Dew Point 19 °F    
Average Humidity 59    
Maximum Humidity 88    
Minimum Humidity 33    
Precipitation  
Precipitation 0.00 in - - ()
Sea Level Pressure  
Sea Level Pressure 30.72 in    
Wind  
Wind Speed 5 mph (ENE)    
Max Wind Speed 12 mph    
Max Gust Speed 18 mph    
Visibility 10 miles    
Events      
Averages and records for this station are not official NWS values.
T = Trace of Precipitation, MM = Missing Value Source: NWS Daily Summary

Daily Weather History Graph

Daily Weather History Graph

Search for Another Location

Airport or City:

Trip Planner

Search our weather history database for the weather conditions in past years. The results will help you decide how hot, cold, wet, or windy it might be!

Date:

Astronomy

Apr. 17, 2014 Rise Set
Actual Time 6:04 AM EDT 7:33 PM EDT
Civil Twilight 5:35 AM EDT 8:02 PM EDT
Nautical Twilight 4:59 AM EDT 8:38 PM EDT
Astronomical Twilight 4:22 AM EDT 9:16 PM EDT
Moon 10:18 PM EDT (4/17) 7:32 AM EDT (4/17)
Length of Visible Light 14h 27m
Length of Day
13h 28m
Waning Gibbous, 94% of the Moon is Illuminated
Apr 17
Waning Gibbous
Apr 22
Last Quarter
Apr 29
New
May 6
First Quarter
May 14
Full

Hourly Weather History & Observations

Time (EDT) Temp. Windchill Dew Point Humidity Pressure Visibility Wind Dir Wind Speed Gust Speed Precip Events Conditions
12:52 AM 26.1 °F - 21.0 °F 81% 30.63 in 10.0 mi Calm Calm - N/A   Clear
1:52 AM 25.0 °F - 21.0 °F 85% 30.66 in 10.0 mi Calm Calm - N/A   Clear
2:52 AM 25.0 °F - 21.0 °F 85% 30.67 in 10.0 mi Calm Calm - N/A   Clear
3:52 AM 24.1 °F 17.0 °F 21.0 °F 88% 30.70 in 10.0 mi NW 5.8 mph - N/A   Clear
4:52 AM 24.1 °F 17.0 °F 19.9 °F 84% 30.71 in 10.0 mi NNW 5.8 mph - N/A   Clear
5:52 AM 21.9 °F 15.7 °F 18.0 °F 85% 30.73 in 10.0 mi NNW 4.6 mph - N/A   Clear
6:52 AM 26.1 °F 20.5 °F 18.0 °F 71% 30.76 in 10.0 mi North 4.6 mph - N/A   Clear
7:52 AM 28.9 °F 22.8 °F 16.0 °F 58% 30.78 in 10.0 mi NE 5.8 mph - N/A   Clear
8:52 AM 32.0 °F 23.0 °F 17.1 °F 54% 30.79 in 10.0 mi NE 11.5 mph - N/A   Clear
9:52 AM 34.0 °F 25.5 °F 15.1 °F 46% 30.79 in 10.0 mi ENE 11.5 mph - N/A   Clear
10:52 AM 36.0 °F 30.3 °F 15.1 °F 43% 30.79 in 10.0 mi East 6.9 mph - N/A   Clear
11:52 AM 39.0 °F 33.4 °F 16.0 °F 39% 30.78 in 10.0 mi ESE 8.1 mph - N/A   Clear
1:52 PM 45.0 °F 39.7 °F 19.0 °F 36% 30.73 in 10.0 mi ESE 10.4 mph - N/A   Clear
2:52 PM 45.0 °F 39.7 °F 18.0 °F 34% 30.72 in 10.0 mi ESE 10.4 mph 18.4 mph N/A   Clear
3:52 PM 46.0 °F 41.4 °F 18.0 °F 33% 30.70 in 10.0 mi East 9.2 mph - N/A   Clear
4:52 PM 46.0 °F 40.6 °F 18.0 °F 33% 30.69 in 10.0 mi ESE 11.5 mph 18.4 mph N/A   Clear
5:52 PM 45.0 °F 40.1 °F 19.9 °F 37% 30.69 in 10.0 mi East 9.2 mph - N/A   Clear
6:52 PM 41.0 °F 34.3 °F 19.0 °F 41% 30.69 in 10.0 mi East 11.5 mph - N/A   Clear
7:52 PM 37.9 °F 30.9 °F 21.0 °F 51% 30.71 in 10.0 mi East 10.4 mph - N/A   Clear
8:52 PM 36.0 °F 30.3 °F 23.0 °F 59% 30.72 in 10.0 mi ESE 6.9 mph - N/A   Clear
9:52 PM 33.1 °F 30.0 °F 23.0 °F 66% 30.71 in 10.0 mi East 3.5 mph - N/A   Clear
10:52 PM 30.9 °F 27.5 °F 23.0 °F 72% 30.68 in 10.0 mi East 3.5 mph - N/A   Clear
11:52 PM 28.9 °F 25.2 °F 23.0 °F 78% 30.66 in 10.0 mi NNW 3.5 mph - N/A   Clear